Weather Service Report


737 
ASUS45 KBOU 271710
RWRCO 

WEATHER ROUNDUP FOR COLORADO
NATIONAL WEATHER SERVICE DENVER/BOULDER CO
1100 AM MDT TUE SEP 27 2016

NOTE: "FAIR" INDICATES FEW OR NO CLOUDS BELOW 12000 FEET WITH NO
SIGNIFICANT WEATHER AND/OR OBSTRUCTIONS TO VISIBILITY.

COZ001>005-013-030-031-271800-
...NORTHWEST COLORADO...
  
CITY           SKY/WX    TMP DP  RH WIND       PRES   REMARKS
CRAIG          FAIR      58  36  43 CALM      30.35F                  
HAYDEN         FAIR      59  30  33 CALM      30.35F                  
MEEKER         FAIR      59  36  42 CALM      30.34F                  
MOUNT WERNER   NOT AVBL                                               
STEAMBOAT SPGS FAIR      56  36  45 W3        30.36F                  
WALDEN           N/A     54  30  40 SE3       30.44S                  
$$

COZ006>008-011-271800-
...WEST CENTRAL VALLEYS...
  
CITY           SKY/WX    TMP DP  RH WIND       PRES   REMARKS
GRAND JUNCTION FAIR      66  38  35 SE8       30.27F                  
MONTROSE       FAIR      63  38  39 CALM      30.33F                  
EAGLE          SUNNY     55  30  38 CALM      30.40F                  
RIFLE          FAIR      60  39  45 CALM      30.31F                  
DELTA          FAIR      63  38  40 SE3       30.31F                  
NUCLA          NOT AVBL                                               
$$

COZ017>023-064>068-271800-
...SOUTHWEST COLORADO...
  
CITY           SKY/WX    TMP DP  RH WIND       PRES   REMARKS
DURANGO        FAIR      62  32  32 CALM      30.37F                  
CORTEZ         FAIR      67  35  30 SW9       30.33F                  
PAGOSA SPRINGS FAIR      62  32  32 S3        30.42S                  
TELLURIDE      FAIR      60  35  39 SW3       30.49S                  
WOLF CREEK PAS FAIR      48  30  49 NE6       30.67S                  
$$

COZ009-010-012-014-032>034-037-058>063-271800-
...CENTRAL COLORADO...
  
CITY           SKY/WX    TMP DP  RH WIND       PRES   REMARKS
ASPEN          FAIR      60  31  33 N6        30.39F                  
BUENA VISTA    FAIR      61  25  25 CALM      30.40F                  
COPPER MTN     FAIR      54  25  32 W8        30.65S                  
BERTHOUD PASS  FAIR      45  32  61 N6        30.68R                  
COTTONWOOD PAS FAIR      61  23  23 SE7       30.51S                  
GUNNISON       FAIR      54  30  40 CALM      30.44F                  
KREMMLING      FAIR      55  27  33 NE3       30.43F                  
LEADVILLE      FAIR      59  23  25 CALM      30.49F                  
MONARCH PASS   FAIR      46  27  46 SW10      30.74S                  
SALIDA         FAIR      60  29  31 CALM      30.46F                  
SUNLIGHT       FAIR      54  32  43 CALM      30.61R                  
WILKERSON PASS FAIR      52  23  32 CALM      30.62S                  
$$

COZ069>075-271800-
...SAN LUIS VALLEY/SANGRE DE CRISTO MOUNTAINS...
  
CITY           SKY/WX    TMP DP  RH WIND       PRES   REMARKS
ALAMOSA        FAIR      58  33  39 VRB3      30.42F                  
LA VETA PASS   NOT AVBL                                               
SAGUACHE       NOT AVBL                                               
$$

COZ035-036-038>040-271800-
...NORTHERN COLORADO FRONT RANGE...
  
CITY           SKY/WX    TMP DP  RH WIND       PRES   REMARKS
DENVER INTL AP FAIR      70  32  24 W6        30.25F                  
DMNS CITY PARK   N/A     69  34  27 W3        30.25F                  
AURORA         SUNNY     69  31  24 CALM      30.27S                  
FRONT RANGE AP SUNNY     73  32  21 SW3       30.26F                  
ERIE MUNI ARPT FAIR      70  32  24 CALM      30.24F                  
BOULDER MUN AP FAIR      70  34  26 CALM      30.24F                  
CENTENNIAL     FAIR      71  32  23 N5        30.27F                  
BROOMFIELD     SUNNY     68  34  28 VRB3      30.28S                  
FORT COLLINS   FAIR      68  37  32 S6        30.23F                  
LONGMONT       FAIR      73  36  26 S3        30.25F                  
$$

COZ041-046-047-076>085-087-088-271800-
...PIKES PEAK/PALMER DIVIDE AND SOUTHERN FOOTHILLS...
  
CITY           SKY/WX    TMP DP  RH WIND       PRES   REMARKS
COLO. SPRINGS  FAIR      71  29  21 S5        30.30S                  
A. F. ACADEMY  FAIR      70  30  22 VRB3      30.30S                  
SCHRIEVER AFB  NOT AVBL                                               
ELLICOTT       NOT AVBL                                               
FALCON         FAIR      69  29  22 SE6       30.34S                  
FORT CARSON    FAIR      70  31  23 VRB2      30.27S                  
LIMON          FAIR      75  30  19 VRB3      30.24F                  
MONUMENT HILL  FAIR      70  30  23 N7        30.34F                  
TRINIDAD       FAIR      73  31  21 VRB3      30.27F                  
$$

COZ042>045-048>051-090-091-271800-
...NORTHEAST COLORADO...
  
CITY           SKY/WX    TMP DP  RH WIND       PRES   REMARKS
GREELEY ARPT   FAIR      70  41  35 SW3       30.23F                  
AKRON          FAIR      71  37  28 W9        30.21F                  
BURLINGTON     FAIR      76  34  21 W9        30.19F                  
WRAY           FAIR      77  37  24 S6        30.16F                  
STERLING       FAIR      68  41  37 SW7       30.17F                  
HOLYOKE        FAIR      79  41  25 S7        30.16F                  
FORT MORGAN    FAIR      71  37  29 W9        30.21F                  
$$

COZ086-089-092>099-271800-
...SOUTHEAST COLORADO...
  
CITY           SKY/WX    TMP DP  RH WIND       PRES   REMARKS
PUEBLO         FAIR      73  32  22 SW3       30.22F                  
LA JUNTA       FAIR      73  35  25 W6        30.21F                  
LAMAR          FAIR      73  36  25 W8        30.18F                  
SPRINGFIELD    NOT AVBL                                               
$$
  

Return to Home page


Western Regional Climate Center, wrcc@dri.edu